Regional Weather Roundup
Issued by NWS

Home | Current Version | Previous Version | Text Only | Print | Product List | Glossary On
Versions: 1 2 3 4 5 6 7 8 9 10 11 12 13 14 15 16 17 18 19 20 21 22 23 24 25 26 27 28 29 30 31 32 33 34 35 36 37 38 39 40 41 42 43 44 45 46 47 48 49 50
626
ASUS43 KLSX 041410
RWRMO

WEATHER SUMMARY FOR MISSOURI
NATIONAL WEATHER SERVICE SPRINGFIELD MO
800 AM CST SUN DEC 04 2016

NOTE: "FAIR" INDICATES FEW OR NO CLOUDS BELOW 12,000 FEET WITH NO
       SIGNIFICANT WEATHER AND/OR OBSTRUCTIONS TO VISIBILITY.
       CURRENT SKY AND/OR WEATHER CONDITIONS ARE NOT AVAILABLE FOR
       CHILLICOTHE AND FARMINGTON.

MOZ001>031-035>038-043-044-053-054-041500-
...NORTHERN AND WESTERN MISSOURI...

CITY           SKY/WX    TMP DP  RH WIND       PRES   REMARKS
KANSAS CTY INT LGT RAIN  37  34  89 SW6       30.00S
KANSAS C DTWN  LGT RAIN  38  36  92 SW6       30.01S
LEE`S SUMMIT   MIX PCPN  37  35  92 SW9       30.00F
ST JOSEPH      LGT RAIN  36  34  92 W7        30.02R
CHILLICOTHE      N/A     33  32  96 CALM      30.02F
KIRKSVILLE     SNOW      33  33 100 E3        30.03F VSB 1/2

$$
MOZ066>068-077>081-088>096-101>105-041500-
...SOUTHWEST MISSOURI...

CITY           SKY/WX    TMP DP  RH WIND       PRES   REMARKS
SPRINGFIELD    LGT RAIN  38  37  97 S7        30.00R FOG
JOPLIN         LGT RAIN  40  40 100 CALM      30.03R FOG
BRANSON        LGT RAIN  37  37 100 CALM      30.02R FOG

$$
MOZ032>034-039>042-045>050-055>058-069>072-041500-
...CENTRAL MISSOURI...

CITY           SKY/WX    TMP DP  RH WIND       PRES   REMARKS
COLUMBIA       LGT RAIN  37  36  96 SE5       30.01R FOG
JEFFERSON CITY LGT RAIN  37  36  96 SE3       30.02S FOG
ROLLA          MIX PCPN  36  35  96 S5        29.98S VSB 3/4
SEDALIA        MIX PCPN  36  34  92 S3        30.02S
WHITEMAN AFB   FLURRIES  35  35 100 S6        30.00F
WARRENSBURG    LGT RAIN  36  36 100 S3        30.01F
OSAGE BEACH    LGT RAIN  37  36  96 CALM      30.03R FOG

$$
MOZ051-052-059>065-041500-
...EAST CENTRAL MISSOURI...

CITY           SKY/WX    TMP DP  RH WIND       PRES   REMARKS
ST LOUIS INTL  LGT RAIN  38  33  82 E8        30.02F
SPIRIT OF STL  MIX PCPN  37  37 100 E5        30.01F FOG
ST CHARLES     MIX PCPN  37  36  96 E9        30.03F FOG

$$
MOZ072>076-082>087-097>100-106>115-041500-
...SOUTH CENTRAL AND SOUTHEAST MISSOURI...

CITY           SKY/WX    TMP DP  RH WIND       PRES   REMARKS
CAPE GIRARDEAU CLOUDY    40  36  86 E8        30.01F
FARMINGTON     MIX PCPN  36  35  96 E5        30.00R FOG
POPLAR BLUFF   CLOUDY    40  39  97 E3        30.02R FOG
WEST PLAINS    CLOUDY    37  37 100 S3        30.01R FOG

$$




USA.gov is the U.S. government's official web portal to all federal, state and local government web resources and services.